TimeCDT,TemperatureF,Dew PointF,Humidity,Sea Level PressureIn,VisibilityMPH,Wind Direction,Wind SpeedMPH,Gust SpeedMPH,PrecipitationIn,Events,Conditions,WindDirDegrees,DateUTC
12:52 AM,36.0,27.0,70,30.31,10.0,NNW,8.1,-,N/A,,Clear,330,2012-10-29 05:52:00
1:52 AM,36.0,26.1,67,30.31,10.0,NNW,8.1,-,N/A,,Clear,330,2012-10-29 06:52:00
2:52 AM,36.0,27.0,70,30.30,10.0,NNW,9.2,-,N/A,,Clear,330,2012-10-29 07:52:00
3:52 AM,36.0,27.0,70,30.31,10.0,NNW,10.4,-,N/A,,Clear,330,2012-10-29 08:52:00
4:52 AM,36.0,26.1,67,30.31,10.0,NNW,8.1,-,N/A,,Partly Cloudy,330,2012-10-29 09:52:00
5:52 AM,36.0,25.0,64,30.32,10.0,NNW,9.2,-,N/A,,Partly Cloudy,330,2012-10-29 10:52:00
6:52 AM,36.0,24.1,62,30.33,10.0,NNW,9.2,-,N/A,,Partly Cloudy,340,2012-10-29 11:52:00
7:52 AM,36.0,25.0,64,30.34,10.0,NNW,8.1,-,N/A,,Partly Cloudy,340,2012-10-29 12:52:00
8:52 AM,39.0,28.0,65,30.34,10.0,NNW,11.5,-,N/A,,Partly Cloudy,340,2012-10-29 13:52:00
9:52 AM,44.1,30.9,60,30.33,10.0,North,11.5,-,N/A,,Scattered Clouds,350,2012-10-29 14:52:00
10:52 AM,46.0,32.0,58,30.32,10.0,North,18.4,24.2,N/A,,Scattered Clouds,10,2012-10-29 15:52:00
11:52 AM,46.9,33.1,59,30.32,10.0,North,16.1,25.3,N/A,,Scattered Clouds,10,2012-10-29 16:52:00
12:52 PM,48.0,35.1,61,30.30,10.0,NNE,15.0,27.6,N/A,,Scattered Clouds,30,2012-10-29 17:52:00
1:52 PM,46.9,34.0,61,30.28,10.0,NNE,18.4,25.3,N/A,,Scattered Clouds,30,2012-10-29 18:52:00
2:52 PM,46.0,32.0,58,30.26,10.0,NNE,17.3,27.6,N/A,,Scattered Clouds,20,2012-10-29 19:52:00
3:52 PM,46.0,33.1,61,30.25,10.0,NNE,17.3,23.0,N/A,,Mostly Cloudy,30,2012-10-29 20:52:00
4:52 PM,44.6,26.6,49,30.21,10.0,North,13.8,23.0,N/A,,Mostly Cloudy,360,2012-10-29 21:52:00
5:52 PM,44.1,27.0,51,30.22,10.0,North,11.5,19.6,N/A,,Mostly Cloudy,350,2012-10-29 22:52:00
6:52 PM,43.0,27.0,53,30.22,10.0,North,16.1,20.7,N/A,,Mostly Cloudy,350,2012-10-29 23:52:00
7:52 PM,43.0,26.1,51,30.20,10.0,North,13.8,21.9,N/A,,Mostly Cloudy,350,2012-10-30 00:52:00
8:52 PM,42.1,27.0,55,30.17,10.0,North,12.7,-,N/A,,Mostly Cloudy,350,2012-10-30 01:52:00
9:52 PM,42.8,28.4,57,30.13,10.0,North,13.8,24.2,N/A,,Mostly Cloudy,360,2012-10-30 02:52:00
10:52 PM,41.0,25.0,53,30.12,10.0,North,18.4,27.6,N/A,,Mostly Cloudy,360,2012-10-30 03:52:00
11:52 PM,39.9,23.0,51,30.09,10.0,North,20.7,31.1,N/A,,Mostly Cloudy,360,2012-10-30 04:52:00